Location: Tr�vern
(48.0333°N, 4.6000°W)
Time: 02:30:44
(UTC+00:00)

Helios 1B rocket - Pass Details

Date: 14 July 2020
Orbit: 574 x 584 km, 98.1° (Epoch: 04 August)

Event Time Altitude Azimuth Distance (km) Brightness Sun altitude
Rises 00:26:02 0° 20° (NNE) 2,809 7.2 -20.3°
Reaches altitude 10° 00:28:19 10° 28° (NNE) 1,903 6.0 -20.3°
Maximum altitude 00:32:11 39° 98° (E) 877 3.2 -20.3°
Enters shadow 00:32:50 36° 122° (ESE) 920 3.2 -20.3°
